Location: Goll?ig?dem
(16.6773°N, 80.7332°E)
Time: 06:28:31
(UTC+00:00)

YAOGAN 1 - Pass Details

Date: 21 April 2021
Orbit: 618 x 620 km, 97.9° (Epoch: 06 May)

Event Time Altitude Azimuth Distance (km) Brightness Sun altitude
Rises 13:45:37 0° 171° (S) 2,882 5.7 -12.8°
Reaches altitude 10° 13:47:48 10° 173° (S) 1,978 4.9 -13.3°
Maximum altitude 13:52:06 75° 259° (W) 643 2.7 -14.3°
Drops below altitude 10° 13:56:24 10° 344° (NNW) 1,980 5.6 -15.2°
Sets 13:58:35 0° 346° (NNW) 2,887 6.5 -15.7°
